Location: Leganes-MADRID
(40.3441°N, 3.7527°W)
Time: 14:23:48
(UTC+02:00)

ISS - Visible Passes

Search period start: 25 May 2017 00:00
Search period end: 04 June 2017 00:00
Orbit: 402 x 409 km, 51.6° (Epoch: 25 May)

Date Brightness Start Highest point End Pass type
(mag) Time Alt. Az. Time Alt. Az. Time Alt. Az.
25 May -0.6 01:04:11 10° NW 01:06:17 16° NNW 01:08:23 10° NNE visible
25 May -0.3 02:42:28 10° NNW 02:43:51 12° N 02:45:14 10° NNE visible
25 May -1.5 04:18:24 10° NW 04:21:14 26° NNE 04:24:02 10° E visible
25 May -3.5 05:54:41 10° WNW 05:57:50 43° SW 06:00:57 10° SSE visible
25 May -3.9 22:33:57 10° SW 22:37:13 73° SE 22:40:31 10° ENE visible
26 May -1.0 00:11:28 10° WNW 00:14:00 20° NNW 00:16:34 10° NNE visible
26 May -0.2 01:50:13 10° NNW 01:51:30 12° N 01:52:45 10° NNE visible
26 May -0.9 03:26:35 10° NNW 03:29:00 19° NNE 03:31:24 10° ENE visible
26 May -4.0 05:02:34 10° NW 05:05:52 88° SW 05:09:07 10° SE visible
26 May -1.6 23:18:52 10° W 23:21:48 29° NNW 23:24:44 10° NE visible
27 May -0.4 00:57:38 10° NW 00:59:07 12° N 01:00:36 10° NNE visible
27 May -0.6 02:34:45 10° NNW 02:36:42 15° NNE 02:38:38 10° NE visible
27 May -2.9 04:10:35 10° NW 04:13:48 49° NNE 04:16:59 10° ESE visible
27 May -2.3 05:47:45 10° W 05:50:02 18° SW 05:52:18 10° S visible
27 May -2.6 22:26:26 10° WSW 22:29:38 47° NNW 22:32:50 10° NE visible
28 May -0.5 00:04:50 10° NW 00:06:45 14° NNW 00:08:40 10° NNE visible
28 May -0.4 01:42:49 10° NNW 01:44:20 12° N 01:45:51 10° NE visible
28 May -1.2 03:18:41 10° NW 03:19:57 19° NNW 03:19:57 19° NNW visible
28 May -0.8 23:12:02 10° WNW 23:14:25 18° NNW 23:16:49 10° NNE visible
29 May -0.4 00:50:40 10° NNW 00:51:56 12° N 00:53:13 10° NNE visible
29 May -1.0 02:26:49 10° NNW 02:28:35 19° N 02:28:35 19° N visible
29 May -1.3 22:19:21 10° W 22:22:09 25° NNW 22:24:57 10° NNE visible
29 May -0.5 23:58:09 10° NNW 23:59:31 12° N 00:00:54 10° NNE visible
30 May -0.9 01:34:57 10° NNW 01:37:05 16° NNE 01:37:42 15° NNE visible
30 May -0.7 23:05:22 10° NW 23:07:07 14° N 23:08:52 10° NNE visible
31 May -0.7 00:43:02 10° NNW 00:44:42 13° N 00:46:22 10° NE visible
31 May -0.9 02:18:52 10° NW 02:19:38 15° NNW 02:19:38 15° NNW visible
31 May -0.8 22:12:31 10° WNW 22:14:44 17° NNW 22:16:56 10° NNE visible
31 May -0.7 23:50:56 10° NNW 23:52:16 12° N 23:53:36 10° NNE visible
01 Jun -1.3 01:26:56 10° NNW 01:29:01 22° N 01:29:01 22° N visible
01 Jun -0.7 22:58:31 10° NNW 22:59:49 12° N 23:01:07 10° NNE visible
02 Jun -1.2 00:35:03 10° NNW 00:37:20 17° NNE 00:38:28 15° NE visible
02 Jun -0.6 02:10:58 10° NW 02:11:06 11° NW 02:11:06 11° NW visible
02 Jun -0.9 23:43:06 10° NNW 23:44:57 14° NNE 23:46:47 10° NE visible
03 Jun -1.5 01:18:56 10° NW 01:20:34 25° NNW 01:20:34 25° NNW visible
03 Jun -0.8 22:51:03 10° NNW 22:52:29 12° N 22:53:55 10° NNE visible
